Time,TemperatureF,DewpointF,PressureIn,WindDirection,WindDirectionDegrees,WindSpeedMPH,WindSpeedGustMPH,Humidity,HourlyPrecipIn,Conditions,Clouds,dailyrainin,SolarRadiationWatts/m^2,SoftwareType,DateUTC
2013-09-13 00:03:00,57.0,44.0,-100.00,North,3,5.0,14.0,62,0.00,,,0.00,0.000000,,2013-09-13 05:03:00,
2013-09-13 00:13:00,57.0,44.0,-100.00,North,3,5.0,14.0,62,0.00,,,0.00,0.000000,,2013-09-13 05:13:00,
2013-09-13 00:43:00,55.0,42.0,-100.00,North,1,5.0,12.0,62,0.00,,,0.00,0.000000,,2013-09-13 05:43:00,
2013-09-13 00:53:00,55.0,42.0,-100.00,North,1,5.0,12.0,62,0.00,,,0.00,0.000000,,2013-09-13 05:53:00,
2013-09-13 01:02:00,55.0,42.0,-100.00,North,1,5.0,12.0,62,0.00,,,0.00,0.000000,,2013-09-13 06:02:00,
2013-09-13 01:12:00,55.0,42.0,-100.00,North,1,5.0,12.0,62,0.00,,,0.00,0.000000,,2013-09-13 06:12:00,
2013-09-13 01:42:00,51.0,43.0,-100.00,North,2,3.0,6.0,75,0.00,,,0.00,0.000000,,2013-09-13 06:42:00,
2013-09-13 01:52:00,51.0,43.0,-100.00,North,2,3.0,6.0,75,0.00,,,0.00,0.000000,,2013-09-13 06:52:00,
2013-09-13 02:02:00,51.0,43.0,-100.00,North,2,3.0,6.0,75,0.00,,,0.00,0.000000,,2013-09-13 07:02:00,
2013-09-13 02:11:00,51.0,43.0,-100.00,North,2,3.0,6.0,75,0.00,,,0.00,0.000000,,2013-09-13 07:11:00,
2013-09-13 02:43:00,49.0,43.0,-100.00,North,352,5.0,7.0,80,0.00,,,0.00,0.000000,,2013-09-13 07:43:00,
2013-09-13 02:52:00,49.0,43.0,-100.00,North,352,5.0,7.0,80,0.00,,,0.00,0.000000,,2013-09-13 07:52:00,
2013-09-13 03:02:00,49.0,43.0,-100.00,North,352,5.0,7.0,80,0.00,,,0.00,0.000000,,2013-09-13 08:02:00,
2013-09-13 03:11:00,49.0,43.0,-100.00,North,352,5.0,7.0,80,0.00,,,0.00,0.000000,,2013-09-13 08:11:00,
2013-09-13 03:42:00,48.0,43.0,-100.00,North,358,4.0,7.0,84,0.00,,,0.00,0.000000,,2013-09-13 08:42:00,
2013-09-13 03:52:00,48.0,43.0,-100.00,North,358,4.0,7.0,84,0.00,,,0.00,0.000000,,2013-09-13 08:52:00,
2013-09-13 04:02:00,48.0,43.0,-100.00,North,358,4.0,7.0,84,0.00,,,0.00,0.000000,,2013-09-13 09:02:00,
2013-09-13 04:12:00,48.0,43.0,-100.00,North,358,4.0,7.0,84,0.00,,,0.00,0.000000,,2013-09-13 09:12:00,
2013-09-13 04:43:00,45.0,43.0,-100.00,NNW,336,3.0,6.0,92,0.00,,,0.00,0.000000,,2013-09-13 09:43:00,
2013-09-13 04:54:00,45.0,43.0,-100.00,NNW,336,3.0,6.0,92,0.00,,,0.00,0.000000,,2013-09-13 09:54:00,
2013-09-13 05:03:00,45.0,43.0,-100.00,NNW,336,3.0,6.0,92,0.00,,,0.00,0.000000,,2013-09-13 10:03:00,
2013-09-13 05:13:00,45.0,43.0,-100.00,NNW,336,3.0,6.0,92,0.00,,,0.00,0.000000,,2013-09-13 10:13:00,
2013-09-13 05:42:00,42.0,42.0,-100.00,West,266,0.0,2.0,100,0.00,,,0.00,0.000000,,2013-09-13 10:42:00,
2013-09-13 05:53:00,42.0,42.0,-100.00,West,266,0.0,2.0,100,0.00,,,0.00,0.000000,,2013-09-13 10:53:00,
2013-09-13 06:03:00,42.0,42.0,-100.00,West,266,0.0,2.0,100,0.00,,,0.00,0.000000,,2013-09-13 11:03:00,
2013-09-13 06:12:00,42.0,42.0,-100.00,West,266,0.0,2.0,100,0.00,,,0.00,0.000000,,2013-09-13 11:12:00,
2013-09-13 06:42:00,40.0,40.0,-100.00,NNW,344,0.0,2.0,100,0.00,,,-99.99,0.000000,,2013-09-13 11:42:00,
2013-09-13 06:52:00,40.0,40.0,-100.00,NNW,344,0.0,2.0,100,0.00,,,-99.99,0.000000,,2013-09-13 11:52:00,
2013-09-13 07:01:00,40.0,40.0,-100.00,NNW,344,0.0,2.0,100,0.00,,,-99.99,0.000000,,2013-09-13 12:01:00,
2013-09-13 07:12:00,40.0,40.0,-100.00,NNW,344,0.0,2.0,100,0.00,,,-99.99,0.000000,,2013-09-13 12:12:00,
2013-09-13 07:42:00,42.0,42.0,-100.00,NW,304,2.0,5.0,100,0.00,,,0.00,17.000000,,2013-09-13 12:42:00,
2013-09-13 07:52:00,42.0,42.0,-100.00,NW,304,2.0,5.0,100,0.00,,,0.00,17.000000,,2013-09-13 12:52:00,
2013-09-13 08:02:00,42.0,42.0,-100.00,NW,304,2.0,5.0,100,0.00,,,0.00,17.000000,,2013-09-13 13:02:00,
2013-09-13 08:11:00,42.0,42.0,-100.00,NW,304,2.0,5.0,100,0.00,,,0.00,17.000000,,2013-09-13 13:11:00,
2013-09-13 08:42:00,49.0,46.0,-100.00,NNW,343,5.0,9.0,88,0.00,,,0.00,118.000000,,2013-09-13 13:42:00,
2013-09-13 08:52:00,49.0,46.0,-100.00,NNW,343,5.0,9.0,88,0.00,,,0.00,118.000000,,2013-09-13 13:52:00,
2013-09-13 09:02:00,49.0,46.0,-100.00,NNW,343,5.0,9.0,88,0.00,,,0.00,118.000000,,2013-09-13 14:02:00,
2013-09-13 09:11:00,49.0,46.0,-100.00,NNW,343,5.0,9.0,88,0.00,,,0.00,118.000000,,2013-09-13 14:11:00,
2013-09-13 09:42:00,53.0,44.0,-100.00,North,5,6.0,13.0,71,0.00,,,0.00,286.000000,,2013-09-13 14:42:00,
2013-09-13 09:52:00,53.0,44.0,-100.00,North,5,6.0,13.0,71,0.00,,,0.00,286.000000,,2013-09-13 14:52:00,
2013-09-13 10:02:00,53.0,44.0,-100.00,North,5,6.0,13.0,71,0.00,,,0.00,286.000000,,2013-09-13 15:02:00,
2013-09-13 10:11:00,53.0,44.0,-100.00,North,5,6.0,13.0,71,0.00,,,0.00,286.000000,,2013-09-13 15:11:00,
2013-09-13 10:43:00,57.0,41.0,-100.00,North,4,4.0,13.0,55,0.00,,,0.00,470.000000,,2013-09-13 15:43:00,
2013-09-13 10:53:00,57.0,41.0,-100.00,North,4,4.0,13.0,55,0.00,,,0.00,470.000000,,2013-09-13 15:53:00,
2013-09-13 11:03:00,57.0,41.0,-100.00,North,4,4.0,13.0,55,0.00,,,0.00,470.000000,,2013-09-13 16:03:00,
2013-09-13 11:12:00,57.0,41.0,-100.00,North,4,4.0,13.0,55,0.00,,,0.00,470.000000,,2013-09-13 16:12:00,
2013-09-13 11:43:00,58.0,39.0,-100.00,North,0,6.0,13.0,50,0.00,,,0.00,622.000000,,2013-09-13 16:43:00,
2013-09-13 11:54:00,58.0,39.0,-100.00,North,0,6.0,13.0,50,0.00,,,0.00,622.000000,,2013-09-13 16:54:00,
2013-09-13 12:04:00,58.0,39.0,-100.00,North,0,6.0,13.0,50,0.00,,,0.00,622.000000,,2013-09-13 17:04:00,
2013-09-13 12:13:00,58.0,39.0,-100.00,North,0,6.0,13.0,50,0.00,,,0.00,622.000000,,2013-09-13 17:13:00,
2013-09-13 12:44:00,62.0,39.0,-100.00,NNW,336,5.0,13.0,42,0.00,,,0.00,719.000000,,2013-09-13 17:44:00,
2013-09-13 12:53:00,62.0,39.0,-100.00,NNW,336,5.0,13.0,42,0.00,,,0.00,719.000000,,2013-09-13 17:53:00,
2013-09-13 13:02:00,62.0,39.0,-100.00,NNW,336,5.0,13.0,42,0.00,,,0.00,719.000000,,2013-09-13 18:02:00,
2013-09-13 13:12:00,62.0,39.0,-100.00,NNW,336,5.0,13.0,42,0.00,,,0.00,719.000000,,2013-09-13 18:12:00,
2013-09-13 13:42:00,64.0,38.0,-100.00,North,351,6.0,13.0,38,0.00,,,0.00,757.000000,,2013-09-13 18:42:00,
2013-09-13 13:52:00,64.0,38.0,-100.00,North,351,6.0,13.0,38,0.00,,,0.00,757.000000,,2013-09-13 18:52:00,
2013-09-13 14:01:00,64.0,38.0,-100.00,North,351,6.0,13.0,38,0.00,,,0.00,757.000000,,2013-09-13 19:01:00,
2013-09-13 14:11:00,64.0,38.0,-100.00,North,351,6.0,13.0,38,0.00,,,0.00,757.000000,,2013-09-13 19:11:00,
2013-09-13 14:43:00,65.0,35.0,-100.00,NNW,333,8.0,15.0,33,0.00,,,0.00,739.000000,,2013-09-13 19:43:00,
2013-09-13 14:52:00,65.0,35.0,-100.00,NNW,333,8.0,15.0,33,0.00,,,0.00,739.000000,,2013-09-13 19:52:00,
2013-09-13 15:02:00,65.0,35.0,-100.00,NNW,333,8.0,15.0,33,0.00,,,0.00,739.000000,,2013-09-13 20:02:00,
2013-09-13 15:11:00,65.0,35.0,-100.00,NNW,333,8.0,15.0,33,0.00,,,0.00,739.000000,,2013-09-13 20:11:00,
2013-09-13 15:43:00,67.0,36.0,-100.00,ENE,73,7.0,14.0,32,0.00,,,0.00,667.000000,,2013-09-13 20:43:00,
2013-09-13 15:52:00,67.0,36.0,-100.00,ENE,73,7.0,14.0,32,0.00,,,0.00,667.000000,,2013-09-13 20:52:00,
2013-09-13 16:02:00,67.0,36.0,-100.00,ENE,73,7.0,14.0,32,0.00,,,0.00,667.000000,,2013-09-13 21:02:00,
2013-09-13 16:12:00,67.0,36.0,-100.00,ENE,73,7.0,14.0,32,0.00,,,0.00,667.000000,,2013-09-13 21:12:00,
2013-09-13 16:44:00,67.0,35.0,-100.00,NE,40,5.0,15.0,31,0.00,,,0.00,550.000000,,2013-09-13 21:44:00,
2013-09-13 16:54:00,67.0,35.0,-100.00,NE,40,5.0,15.0,31,0.00,,,0.00,550.000000,,2013-09-13 21:54:00,
2013-09-13 17:04:00,67.0,35.0,-100.00,NE,40,5.0,15.0,31,0.00,,,0.00,550.000000,,2013-09-13 22:04:00,
2013-09-13 17:13:00,67.0,35.0,-100.00,NE,40,5.0,15.0,31,0.00,,,0.00,550.000000,,2013-09-13 22:13:00,
2013-09-13 17:43:00,67.0,37.0,-100.00,NE,44,3.0,13.0,33,0.00,,,0.00,396.000000,,2013-09-13 22:43:00,
2013-09-13 17:53:00,67.0,37.0,-100.00,NE,44,3.0,13.0,33,0.00,,,0.00,396.000000,,2013-09-13 22:53:00,
2013-09-13 18:03:00,67.0,37.0,-100.00,NE,44,3.0,13.0,33,0.00,,,0.00,396.000000,,2013-09-13 23:03:00,
2013-09-13 18:12:00,67.0,37.0,-100.00,NE,44,3.0,13.0,33,0.00,,,0.00,396.000000,,2013-09-13 23:12:00,
2013-09-13 18:43:00,64.0,39.0,-100.00,ENE,76,5.0,9.0,39,0.00,,,0.00,222.000000,,2013-09-13 23:43:00,
2013-09-13 18:53:00,64.0,39.0,-100.00,ENE,76,5.0,9.0,39,0.00,,,0.00,222.000000,,2013-09-13 23:53:00,
2013-09-13 19:01:00,64.0,39.0,-100.00,ENE,76,5.0,9.0,39,0.00,,,0.00,222.000000,,2013-09-14 00:01:00,
2013-09-13 19:12:00,64.0,39.0,-100.00,ENE,76,5.0,9.0,39,0.00,,,0.00,222.000000,,2013-09-14 00:12:00,
2013-09-13 19:42:00,59.0,39.0,-100.00,ENE,75,5.0,11.0,48,0.00,,,0.00,57.000000,,2013-09-14 00:42:00,
2013-09-13 19:52:00,59.0,39.0,-100.00,ENE,75,5.0,11.0,48,0.00,,,0.00,57.000000,,2013-09-14 00:52:00,
2013-09-13 20:02:00,59.0,39.0,-100.00,ENE,75,5.0,11.0,48,0.00,,,0.00,57.000000,,2013-09-14 01:02:00,
2013-09-13 20:11:00,59.0,39.0,-100.00,ENE,75,5.0,11.0,48,0.00,,,0.00,57.000000,,2013-09-14 01:11:00,
2013-09-13 20:42:00,54.0,40.0,-100.00,East,84,4.0,6.0,60,0.00,,,0.00,0.000000,,2013-09-14 01:42:00,
2013-09-13 20:52:00,54.0,40.0,-100.00,East,84,4.0,6.0,60,0.00,,,0.00,0.000000,,2013-09-14 01:52:00,
2013-09-13 21:02:00,54.0,40.0,-100.00,East,84,4.0,6.0,60,0.00,,,0.00,0.000000,,2013-09-14 02:02:00,
2013-09-13 21:12:00,54.0,40.0,-100.00,East,84,4.0,6.0,60,0.00,,,0.00,0.000000,,2013-09-14 02:12:00,
2013-09-13 21:42:00,52.0,43.0,-100.00,ESE,110,5.0,9.0,72,0.00,,,0.00,0.000000,,2013-09-14 02:42:00,
2013-09-13 21:52:00,52.0,43.0,-100.00,ESE,110,5.0,9.0,72,0.00,,,0.00,0.000000,,2013-09-14 02:52:00,
2013-09-13 22:02:00,52.0,43.0,-100.00,ESE,110,5.0,9.0,72,0.00,,,0.00,0.000000,,2013-09-14 03:02:00,
2013-09-13 22:12:00,52.0,43.0,-100.00,ESE,110,5.0,9.0,72,0.00,,,0.00,0.000000,,2013-09-14 03:12:00,
2013-09-13 22:14:00,47.0,43.0,-100.00,East,88,0.0,4.0,87,0.00,,,0.00,0.000000,,2013-09-14 03:14:00,
2013-09-13 22:45:00,47.0,43.0,-100.00,East,88,0.0,4.0,87,0.00,,,0.00,0.000000,,2013-09-14 03:45:00,
2013-09-13 22:55:00,47.0,43.0,-100.00,East,88,0.0,4.0,87,0.00,,,0.00,0.000000,,2013-09-14 03:55:00,
2013-09-13 23:04:00,47.0,43.0,-100.00,East,88,0.0,4.0,87,0.00,,,0.00,0.000000,,2013-09-14 04:04:00,
2013-09-13 23:43:00,46.0,43.0,-100.00,East,101,0.0,2.0,89,0.00,,,0.00,0.000000,,2013-09-14 04:43:00,
2013-09-13 23:54:00,46.0,43.0,-100.00,East,101,0.0,2.0,89,0.00,,,0.00,0.000000,,2013-09-14 04:54:00,